Time,TemperatureF,DewpointF,PressureIn,WindDirection,WindDirectionDegrees,WindSpeedMPH,WindSpeedGustMPH,Humidity,HourlyPrecipIn,Conditions,Clouds,dailyrainin,SoftwareType,DateUTC
2013-03-15 00:00:00,24.3,6.0,29.55,WNW,284,4.9,4.9,45,0.00,,,0.00,WXlink_for_OpenVMS,2013-03-15 04:00:00,
2013-03-15 00:05:00,24.3,6.0,29.55,NW,309,4.0,4.0,45,0.00,,,0.00,WXlink_for_OpenVMS,2013-03-15 04:05:00,
2013-03-15 00:10:00,24.1,6.0,29.55,WNW,297,3.6,4.0,45,0.00,,,0.00,WXlink_for_OpenVMS,2013-03-15 04:10:00,
2013-03-15 00:15:00,24.1,6.0,29.55,WNW,291,2.7,3.6,45,0.00,,,0.00,WXlink_for_OpenVMS,2013-03-15 04:15:00,
2013-03-15 00:20:00,24.1,6.0,29.55,WSW,252,0.0,0.0,46,0.00,,,0.00,WXlink_for_OpenVMS,2013-03-15 04:20:00,
2013-03-15 00:25:00,24.3,6.0,29.55,WNW,299,3.6,0.0,46,0.00,,,0.00,WXlink_for_OpenVMS,2013-03-15 04:25:00,
2013-03-15 00:30:00,24.3,6.0,29.55,WNW,289,0.0,3.1,46,0.00,,,0.00,WXlink_for_OpenVMS,2013-03-15 04:30:00,
2013-03-15 00:35:00,24.3,6.0,29.55,NW,318,0.0,4.9,46,0.00,,,0.00,WXlink_for_OpenVMS,2013-03-15 04:35:00,
2013-03-15 00:40:00,24.3,6.0,29.55,NNW,332,3.1,4.0,46,0.00,,,0.00,WXlink_for_OpenVMS,2013-03-15 04:40:00,
2013-03-15 00:45:00,24.3,6.0,29.55,WNW,298,0.0,0.0,46,0.00,,,0.00,WXlink_for_OpenVMS,2013-03-15 04:45:00,
2013-03-15 00:50:00,24.3,6.0,29.55,NW,325,2.7,3.6,46,0.00,,,0.00,WXlink_for_OpenVMS,2013-03-15 04:50:00,
2013-03-15 00:55:00,24.3,7.0,29.55,NNW,334,2.2,3.6,47,0.00,,,0.00,WXlink_for_OpenVMS,2013-03-15 04:55:00,
2013-03-15 01:00:00,24.4,7.0,29.55,NW,326,0.0,0.0,47,0.00,,,0.00,WXlink_for_OpenVMS,2013-03-15 05:00:00,
2013-03-15 01:05:00,24.4,7.0,29.55,NW,326,3.1,4.5,47,0.00,,,0.00,WXlink_for_OpenVMS,2013-03-15 05:05:00,
2013-03-15 01:15:00,24.3,7.0,29.58,NW,310,3.6,4.0,47,0.00,,,0.00,WXlink_for_OpenVMS,2013-03-15 05:15:00,
2013-03-15 01:20:00,24.4,7.0,29.58,WSW,243,4.0,5.4,47,0.00,,,0.00,WXlink_for_OpenVMS,2013-03-15 05:20:00,
2013-03-15 01:25:00,24.4,7.0,29.58,NW,315,4.0,4.0,47,0.00,,,0.00,WXlink_for_OpenVMS,2013-03-15 05:25:00,
2013-03-15 01:30:00,24.4,7.0,29.58,WSW,248,0.0,0.0,47,0.00,,,0.00,WXlink_for_OpenVMS,2013-03-15 05:30:00,
2013-03-15 01:35:00,24.4,7.0,29.58,NW,320,2.2,4.9,47,0.00,,,0.00,WXlink_for_OpenVMS,2013-03-15 05:35:00,
2013-03-15 01:45:00,24.4,7.0,29.58,WNW,298,4.0,4.0,47,0.00,,,0.00,WXlink_for_OpenVMS,2013-03-15 05:45:00,
2013-03-15 01:50:00,24.4,8.0,29.58,WNW,299,3.1,4.9,48,0.00,,,0.00,WXlink_for_OpenVMS,2013-03-15 05:50:00,
2013-03-15 01:55:00,24.3,7.0,29.58,NNW,332,4.0,4.0,47,0.00,,,0.00,WXlink_for_OpenVMS,2013-03-15 05:55:00,
2013-03-15 02:00:00,24.3,7.0,29.58,NW,304,3.1,4.9,47,0.00,,,0.00,WXlink_for_OpenVMS,2013-03-15 06:00:00,
2013-03-15 02:05:00,24.3,7.0,29.58,NW,314,4.0,5.8,47,0.00,,,0.00,WXlink_for_OpenVMS,2013-03-15 06:05:00,
2013-03-15 02:15:00,24.3,7.0,29.58,WNW,287,3.6,3.6,47,0.00,,,0.00,WXlink_for_OpenVMS,2013-03-15 06:15:00,
2013-03-15 02:20:00,24.3,7.0,29.58,WNW,299,4.0,4.0,47,0.00,,,0.00,WXlink_for_OpenVMS,2013-03-15 06:20:00,
2013-03-15 02:25:00,24.3,7.0,29.58,WNW,303,2.2,3.1,47,0.00,,,0.00,WXlink_for_OpenVMS,2013-03-15 06:25:00,
2013-03-15 02:30:00,24.3,7.0,29.58,SSW,209,3.6,3.6,47,0.00,,,0.00,WXlink_for_OpenVMS,2013-03-15 06:30:00,
2013-03-15 02:35:00,24.3,7.0,29.58,West,271,4.5,5.8,47,0.00,,,0.00,WXlink_for_OpenVMS,2013-03-15 06:35:00,
2013-03-15 02:40:00,24.3,7.0,29.58,West,274,0.0,0.0,47,0.00,,,0.00,WXlink_for_OpenVMS,2013-03-15 06:40:00,
2013-03-15 02:45:00,24.3,7.0,29.58,WNW,300,0.0,0.0,47,0.00,,,0.00,WXlink_for_OpenVMS,2013-03-15 06:45:00,
2013-03-15 02:50:00,24.3,7.0,29.58,West,271,0.0,0.0,47,0.00,,,0.00,WXlink_for_OpenVMS,2013-03-15 06:50:00,
2013-03-15 02:55:00,24.1,7.0,29.58,WNW,300,4.0,4.0,47,0.00,,,0.00,WXlink_for_OpenVMS,2013-03-15 06:55:00,
2013-03-15 03:00:00,24.1,7.0,29.58,NW,317,4.5,4.5,47,0.00,,,0.00,WXlink_for_OpenVMS,2013-03-15 07:00:00,
2013-03-15 03:10:00,23.9,7.0,29.58,WNW,292,0.0,0.0,47,0.00,,,0.00,WXlink_for_OpenVMS,2013-03-15 07:10:00,
2013-03-15 03:15:00,23.9,7.0,29.58,WNW,290,4.9,5.4,47,0.00,,,0.00,WXlink_for_OpenVMS,2013-03-15 07:15:00,
2013-03-15 03:20:00,23.9,7.0,29.58,WNW,302,2.7,2.7,47,0.00,,,0.00,WXlink_for_OpenVMS,2013-03-15 07:20:00,
2013-03-15 03:25:00,23.9,7.0,29.58,West,271,3.6,4.0,47,0.00,,,0.00,WXlink_for_OpenVMS,2013-03-15 07:25:00,
2013-03-15 03:30:00,23.7,6.0,29.58,NNW,341,4.9,4.9,47,0.00,,,0.00,WXlink_for_OpenVMS,2013-03-15 07:30:00,
2013-03-15 03:35:00,23.5,6.0,29.58,NW,319,2.7,4.0,47,0.00,,,0.00,WXlink_for_OpenVMS,2013-03-15 07:35:00,
2013-03-15 03:40:00,23.5,6.0,29.58,WNW,301,3.6,3.6,47,0.00,,,0.00,WXlink_for_OpenVMS,2013-03-15 07:40:00,
2013-03-15 03:50:00,23.4,6.0,29.55,NW,305,4.0,5.4,47,0.00,,,0.00,WXlink_for_OpenVMS,2013-03-15 07:50:00,
2013-03-15 03:55:00,23.2,6.0,29.55,NW,314,3.6,3.6,47,0.00,,,0.00,WXlink_for_OpenVMS,2013-03-15 07:55:00,
2013-03-15 04:00:00,23.2,6.0,29.55,WNW,303,3.6,3.6,47,0.00,,,0.00,WXlink_for_OpenVMS,2013-03-15 08:00:00,
2013-03-15 04:05:00,23.2,6.0,29.55,NNW,330,4.0,5.4,47,0.00,,,0.00,WXlink_for_OpenVMS,2013-03-15 08:05:00,
2013-03-15 04:10:00,23.0,6.0,29.55,NW,310,4.5,4.5,47,0.00,,,0.00,WXlink_for_OpenVMS,2013-03-15 08:10:00,
2013-03-15 04:15:00,22.8,6.0,29.58,WNW,300,6.3,6.3,47,0.00,,,0.00,WXlink_for_OpenVMS,2013-03-15 08:15:00,
2013-03-15 04:20:00,22.8,6.0,29.58,West,261,4.0,5.4,47,0.00,,,0.00,WXlink_for_OpenVMS,2013-03-15 08:20:00,
2013-03-15 04:25:00,22.8,6.0,29.58,NW,325,0.0,0.0,47,0.00,,,0.00,WXlink_for_OpenVMS,2013-03-15 08:25:00,
2013-03-15 04:30:00,22.8,6.0,29.58,NNW,331,4.9,6.3,47,0.00,,,0.00,WXlink_for_OpenVMS,2013-03-15 08:30:00,
2013-03-15 04:35:00,22.6,5.0,29.58,NW,319,4.5,6.3,47,0.00,,,0.00,WXlink_for_OpenVMS,2013-03-15 08:35:00,
2013-03-15 04:40:00,22.6,5.0,29.58,WNW,303,4.0,5.8,46,0.00,,,0.00,WXlink_for_OpenVMS,2013-03-15 08:40:00,
2013-03-15 04:45:00,22.5,5.0,29.58,NW,307,4.5,4.5,46,0.00,,,0.00,WXlink_for_OpenVMS,2013-03-15 08:45:00,
2013-03-15 04:50:00,22.3,5.0,29.58,NW,326,4.0,4.9,46,0.00,,,0.00,WXlink_for_OpenVMS,2013-03-15 08:50:00,
2013-03-15 05:00:00,22.3,5.0,29.58,WNW,290,3.6,3.6,46,0.00,,,0.00,WXlink_for_OpenVMS,2013-03-15 09:00:00,
2013-03-15 05:05:00,22.1,4.0,29.58,WSW,250,4.5,4.9,46,0.00,,,0.00,WXlink_for_OpenVMS,2013-03-15 09:05:00,
2013-03-15 05:10:00,21.9,4.0,29.58,WSW,254,5.4,5.4,46,0.00,,,0.00,WXlink_for_OpenVMS,2013-03-15 09:10:00,
2013-03-15 05:15:00,21.9,4.0,29.58,WNW,290,5.8,6.3,46,0.00,,,0.00,WXlink_for_OpenVMS,2013-03-15 09:15:00,
2013-03-15 05:20:00,22.1,4.0,29.58,West,276,3.6,4.0,46,0.00,,,0.00,WXlink_for_OpenVMS,2013-03-15 09:20:00,
2013-03-15 05:25:00,22.1,4.0,29.58,NNW,331,3.6,4.0,46,0.00,,,0.00,WXlink_for_OpenVMS,2013-03-15 09:25:00,
2013-03-15 05:30:00,22.1,4.0,29.58,NNW,333,4.0,4.9,46,0.00,,,0.00,WXlink_for_OpenVMS,2013-03-15 09:30:00,
2013-03-15 05:35:00,22.1,4.0,29.58,NW,308,4.0,4.0,46,0.00,,,0.00,WXlink_for_OpenVMS,2013-03-15 09:35:00,
2013-03-15 05:45:00,22.1,4.0,29.58,NW,304,4.9,4.9,46,0.00,,,0.00,WXlink_for_OpenVMS,2013-03-15 09:45:00,
2013-03-15 05:50:00,21.9,4.0,29.58,NW,312,4.5,5.4,46,0.00,,,0.00,WXlink_for_OpenVMS,2013-03-15 09:50:00,
2013-03-15 05:55:00,21.9,4.0,29.58,NW,307,4.9,5.8,46,0.00,,,0.00,WXlink_for_OpenVMS,2013-03-15 09:55:00,
2013-03-15 06:05:00,21.9,4.0,29.58,NNW,346,3.1,4.0,46,0.00,,,0.00,WXlink_for_OpenVMS,2013-03-15 10:05:00,
2013-03-15 06:10:00,21.7,4.0,29.58,West,267,2.7,3.1,46,0.00,,,0.00,WXlink_for_OpenVMS,2013-03-15 10:10:00,
2013-03-15 06:15:00,21.9,4.0,29.58,WNW,298,3.6,4.0,46,0.00,,,0.00,WXlink_for_OpenVMS,2013-03-15 10:15:00,
2013-03-15 06:20:00,21.9,4.0,29.58,West,278,2.2,2.7,46,0.00,,,0.00,WXlink_for_OpenVMS,2013-03-15 10:20:00,
2013-03-15 06:25:00,22.1,4.0,29.58,WNW,290,0.0,0.0,46,0.00,,,0.00,WXlink_for_OpenVMS,2013-03-15 10:25:00,
2013-03-15 06:30:00,22.1,4.0,29.58,WNW,296,0.0,0.0,46,0.00,,,0.00,WXlink_for_OpenVMS,2013-03-15 10:30:00,
2013-03-15 06:35:00,21.9,4.0,29.58,WNW,296,0.0,0.0,46,0.00,,,0.00,WXlink_for_OpenVMS,2013-03-15 10:35:00,
2013-03-15 06:45:00,22.1,4.0,29.58,WNW,291,0.0,0.0,46,0.00,,,0.00,WXlink_for_OpenVMS,2013-03-15 10:45:00,
2013-03-15 06:50:00,22.1,4.0,29.58,WNW,291,0.0,0.0,46,0.00,,,0.00,WXlink_for_OpenVMS,2013-03-15 10:50:00,
2013-03-15 06:55:00,22.1,4.0,29.58,West,265,0.0,0.0,46,0.00,,,0.00,WXlink_for_OpenVMS,2013-03-15 10:55:00,
2013-03-15 07:00:00,22.1,4.0,29.58,West,265,0.0,0.0,46,0.00,,,0.00,WXlink_for_OpenVMS,2013-03-15 11:00:00,
2013-03-15 07:05:00,22.1,4.0,29.58,West,265,0.0,0.0,46,0.00,,,0.00,WXlink_for_OpenVMS,2013-03-15 11:05:00,
2013-03-15 07:10:00,22.1,5.0,29.58,West,265,0.0,0.0,47,0.00,,,0.00,WXlink_for_OpenVMS,2013-03-15 11:10:00,
2013-03-15 07:15:00,22.1,5.0,29.58,West,265,0.0,0.0,47,0.00,,,0.00,WXlink_for_OpenVMS,2013-03-15 11:15:00,
2013-03-15 07:20:00,22.1,5.0,29.58,WSW,238,0.0,0.0,47,0.00,,,0.00,WXlink_for_OpenVMS,2013-03-15 11:20:00,
2013-03-15 07:25:00,22.1,5.0,29.58,NW,311,0.0,0.0,47,0.00,,,0.00,WXlink_for_OpenVMS,2013-03-15 11:25:00,
2013-03-15 07:30:00,22.3,5.0,29.58,West,261,0.0,0.0,47,0.00,,,0.00,WXlink_for_OpenVMS,2013-03-15 11:30:00,
2013-03-15 07:35:00,22.5,5.0,29.58,NW,311,3.6,3.6,47,0.00,,,0.00,WXlink_for_OpenVMS,2013-03-15 11:35:00,
2013-03-15 07:45:00,22.6,5.0,29.58,WSW,245,3.1,3.1,47,0.00,,,0.00,WXlink_for_OpenVMS,2013-03-15 11:45:00,
2013-03-15 07:50:00,22.8,6.0,29.58,NW,318,2.2,3.6,47,0.00,,,0.00,WXlink_for_OpenVMS,2013-03-15 11:50:00,
2013-03-15 07:55:00,22.6,5.0,29.58,West,265,2.2,3.1,47,0.00,,,0.00,WXlink_for_OpenVMS,2013-03-15 11:55:00,
2013-03-15 08:00:00,22.8,6.0,29.60,SW,234,4.0,4.0,47,0.00,,,0.00,WXlink_for_OpenVMS,2013-03-15 12:00:00,
2013-03-15 08:05:00,22.8,6.0,29.60,West,277,0.0,0.0,47,0.00,,,0.00,WXlink_for_OpenVMS,2013-03-15 12:05:00,
2013-03-15 08:10:00,23.2,6.0,29.60,West,266,3.1,3.1,47,0.00,,,0.00,WXlink_for_OpenVMS,2013-03-15 12:10:00,
2013-03-15 08:15:00,23.4,6.0,29.58,WSW,258,0.0,0.0,47,0.00,,,0.00,WXlink_for_OpenVMS,2013-03-15 12:15:00,
2013-03-15 08:20:00,23.9,7.0,29.58,West,260,3.1,3.1,47,0.00,,,0.00,WXlink_for_OpenVMS,2013-03-15 12:20:00,
2013-03-15 08:25:00,24.4,7.0,29.58,SW,226,4.0,4.0,46,0.00,,,0.00,WXlink_for_OpenVMS,2013-03-15 12:25:00,
2013-03-15 08:35:00,24.4,7.0,29.58,NW,305,3.1,6.3,46,0.00,,,0.00,WXlink_for_OpenVMS,2013-03-15 12:35:00,
2013-03-15 08:40:00,24.4,7.0,29.58,WSW,254,3.1,3.1,46,0.00,,,0.00,WXlink_for_OpenVMS,2013-03-15 12:40:00,
2013-03-15 08:45:00,24.4,7.0,29.60,NW,305,3.1,5.8,46,0.00,,,0.00,WXlink_for_OpenVMS,2013-03-15 12:45:00,
2013-03-15 08:50:00,24.4,7.0,29.60,West,261,0.0,2.7,46,0.00,,,0.00,WXlink_for_OpenVMS,2013-03-15 12:50:00,
2013-03-15 08:55:00,25.0,7.0,29.60,West,281,0.0,4.0,46,0.00,,,0.00,WXlink_for_OpenVMS,2013-03-15 12:55:00,
2013-03-15 09:00:00,25.3,7.0,29.60,NW,306,5.4,6.3,46,0.00,,,0.00,WXlink_for_OpenVMS,2013-03-15 13:00:00,
2013-03-15 09:05:00,25.7,8.0,29.60,SE,146,0.0,3.1,46,0.00,,,0.00,WXlink_for_OpenVMS,2013-03-15 13:05:00,
2013-03-15 09:15:00,25.7,8.0,29.60,West,279,3.6,3.6,46,0.00,,,0.00,WXlink_for_OpenVMS,2013-03-15 13:15:00,
2013-03-15 09:20:00,25.9,8.0,29.60,NW,310,4.5,6.3,46,0.00,,,0.00,WXlink_for_OpenVMS,2013-03-15 13:20:00,
2013-03-15 09:25:00,25.9,7.0,29.60,West,278,4.5,4.5,45,0.00,,,0.00,WXlink_for_OpenVMS,2013-03-15 13:25:00,
2013-03-15 09:30:00,26.1,8.0,29.60,South,189,4.9,4.9,45,0.00,,,0.00,WXlink_for_OpenVMS,2013-03-15 13:30:00,
2013-03-15 09:35:00,26.1,8.0,29.60,West,263,2.7,3.6,45,0.00,,,0.00,WXlink_for_OpenVMS,2013-03-15 13:35:00,
2013-03-15 09:45:00,26.2,8.0,29.58,NW,322,3.1,3.1,45,0.00,,,0.00,WXlink_for_OpenVMS,2013-03-15 13:45:00,
2013-03-15 09:50:00,26.4,8.0,29.58,SSW,212,2.7,0.0,45,0.00,,,0.00,WXlink_for_OpenVMS,2013-03-15 13:50:00,
2013-03-15 09:55:00,27.0,8.0,29.58,WNW,289,3.1,4.0,45,0.00,,,0.00,WXlink_for_OpenVMS,2013-03-15 13:55:00,
2013-03-15 10:00:00,27.0,8.0,29.58,WNW,302,4.0,4.0,45,0.00,,,0.00,WXlink_for_OpenVMS,2013-03-15 14:00:00,
2013-03-15 10:05:00,27.1,8.0,29.58,NW,311,3.6,4.0,44,0.00,,,0.00,WXlink_for_OpenVMS,2013-03-15 14:05:00,
2013-03-15 10:10:00,27.3,8.0,29.58,NW,308,4.9,5.8,44,0.00,,,0.00,WXlink_for_OpenVMS,2013-03-15 14:10:00,
2013-03-15 10:15:00,27.7,9.0,29.58,WNW,297,3.1,3.1,44,0.00,,,0.00,WXlink_for_OpenVMS,2013-03-15 14:15:00,
2013-03-15 10:20:00,27.9,9.0,29.58,SW,221,2.7,3.1,44,0.00,,,0.00,WXlink_for_OpenVMS,2013-03-15 14:20:00,
2013-03-15 10:25:00,28.0,9.0,29.58,WSW,247,2.7,2.7,44,0.00,,,0.00,WXlink_for_OpenVMS,2013-03-15 14:25:00,
2013-03-15 10:30:00,28.2,9.0,29.58,West,277,0.0,3.1,44,0.00,,,0.00,WXlink_for_OpenVMS,2013-03-15 14:30:00,
2013-03-15 10:35:00,28.6,9.0,29.58,SW,231,3.6,3.6,44,0.00,,,0.00,WXlink_for_OpenVMS,2013-03-15 14:35:00,
2013-03-15 10:40:00,28.8,10.0,29.58,SW,223,3.6,4.9,44,0.00,,,0.00,WXlink_for_OpenVMS,2013-03-15 14:40:00,
2013-03-15 10:45:00,28.9,9.0,29.58,WSW,247,2.7,3.6,43,0.00,,,0.00,WXlink_for_OpenVMS,2013-03-15 14:45:00,
2013-03-15 10:50:00,28.9,9.0,29.58,West,275,3.6,3.6,43,0.00,,,0.00,WXlink_for_OpenVMS,2013-03-15 14:50:00,
2013-03-15 11:00:00,29.5,10.0,29.55,SSW,212,0.0,0.0,43,0.00,,,0.00,WXlink_for_OpenVMS,2013-03-15 15:00:00,
2013-03-15 11:05:00,29.8,10.0,29.55,SSW,211,3.6,3.6,43,0.00,,,0.00,WXlink_for_OpenVMS,2013-03-15 15:05:00,
2013-03-15 11:10:00,30.2,10.0,29.55,NW,309,3.6,4.9,43,0.00,,,0.00,WXlink_for_OpenVMS,2013-03-15 15:10:00,
2013-03-15 11:15:00,30.4,11.0,29.55,NW,306,2.2,3.1,43,0.00,,,0.00,WXlink_for_OpenVMS,2013-03-15 15:15:00,
2013-03-15 11:20:00,30.7,10.0,29.55,WNW,289,2.7,4.9,42,0.00,,,0.00,WXlink_for_OpenVMS,2013-03-15 15:20:00,
2013-03-15 11:25:00,31.1,11.0,29.55,SW,234,3.1,3.1,42,0.00,,,0.00,WXlink_for_OpenVMS,2013-03-15 15:25:00,
2013-03-15 11:30:00,31.6,11.0,29.55,SW,220,4.0,4.0,42,0.00,,,0.00,WXlink_for_OpenVMS,2013-03-15 15:30:00,
2013-03-15 11:35:00,32.2,12.0,29.55,WSW,239,4.0,4.0,42,0.00,,,0.00,WXlink_for_OpenVMS,2013-03-15 15:35:00,
2013-03-15 11:40:00,32.5,12.0,29.55,WSW,241,2.7,2.7,42,0.00,,,0.00,WXlink_for_OpenVMS,2013-03-15 15:40:00,
2013-03-15 11:45:00,32.7,12.0,29.55,WSW,256,3.6,4.0,42,0.00,,,0.00,WXlink_for_OpenVMS,2013-03-15 15:45:00,
2013-03-15 11:55:00,33.3,12.0,29.55,WSW,244,2.2,3.6,41,0.00,,,0.00,WXlink_for_OpenVMS,2013-03-15 15:55:00,
2013-03-15 12:00:00,33.4,12.0,29.52,SSE,167,5.8,5.8,41,0.00,,,0.00,WXlink_for_OpenVMS,2013-03-15 16:00:00,
2013-03-15 12:05:00,33.4,12.0,29.52,SW,221,2.2,2.7,41,0.00,,,0.00,WXlink_for_OpenVMS,2013-03-15 16:05:00,
2013-03-15 12:10:00,33.6,12.0,29.52,SW,229,3.1,4.9,41,0.00,,,0.00,WXlink_for_OpenVMS,2013-03-15 16:10:00,
2013-03-15 12:15:00,34.2,12.0,29.52,SW,233,3.1,5.8,40,0.00,,,0.00,WXlink_for_OpenVMS,2013-03-15 16:15:00,
2013-03-15 12:20:00,34.7,13.0,29.52,NW,307,4.9,4.9,40,0.00,,,0.00,WXlink_for_OpenVMS,2013-03-15 16:20:00,
2013-03-15 12:25:00,34.9,13.0,29.52,WSW,257,3.1,3.1,40,0.00,,,0.00,WXlink_for_OpenVMS,2013-03-15 16:25:00,
2013-03-15 12:30:00,35.1,13.0,29.52,WNW,287,4.5,4.5,40,0.00,,,0.00,WXlink_for_OpenVMS,2013-03-15 16:30:00,
2013-03-15 12:35:00,35.4,13.0,29.52,West,264,3.6,3.6,39,0.00,,,0.00,WXlink_for_OpenVMS,2013-03-15 16:35:00,
2013-03-15 12:40:00,35.4,13.0,29.52,SSE,164,3.6,5.8,39,0.00,,,0.00,WXlink_for_OpenVMS,2013-03-15 16:40:00,
2013-03-15 12:45:00,35.8,13.0,29.49,West,274,3.1,3.6,39,0.00,,,0.00,WXlink_for_OpenVMS,2013-03-15 16:45:00,
2013-03-15 12:50:00,36.1,13.0,29.49,SW,230,3.6,3.6,38,0.00,,,0.00,WXlink_for_OpenVMS,2013-03-15 16:50:00,
2013-03-15 12:55:00,36.7,14.0,29.49,South,191,4.0,5.8,39,0.00,,,0.00,WXlink_for_OpenVMS,2013-03-15 16:55:00,
2013-03-15 13:05:00,37.4,14.0,29.49,West,275,2.7,4.9,38,0.00,,,0.00,WXlink_for_OpenVMS,2013-03-15 17:05:00,
2013-03-15 13:10:00,37.6,14.0,29.49,SW,227,4.5,5.4,37,0.00,,,0.00,WXlink_for_OpenVMS,2013-03-15 17:10:00,
2013-03-15 13:15:00,37.8,14.0,29.49,South,178,2.7,0.0,38,0.00,,,0.00,WXlink_for_OpenVMS,2013-03-15 17:15:00,
2013-03-15 13:20:00,37.9,14.0,29.49,SSW,197,2.2,4.0,37,0.00,,,0.00,WXlink_for_OpenVMS,2013-03-15 17:20:00,
2013-03-15 13:25:00,38.1,14.0,29.49,WSW,253,3.6,5.8,36,0.00,,,0.00,WXlink_for_OpenVMS,2013-03-15 17:25:00,
2013-03-15 13:30:00,38.5,14.0,29.46,SSW,203,2.7,0.0,36,0.00,,,0.00,WXlink_for_OpenVMS,2013-03-15 17:30:00,
2013-03-15 13:35:00,38.5,13.0,29.46,SW,219,3.1,4.0,35,0.00,,,0.00,WXlink_for_OpenVMS,2013-03-15 17:35:00,
2013-03-15 13:40:00,39.2,14.0,29.46,SW,227,2.2,3.1,35,0.00,,,0.00,WXlink_for_OpenVMS,2013-03-15 17:40:00,
2013-03-15 13:45:00,39.9,14.0,29.46,South,191,3.1,3.6,35,0.00,,,0.00,WXlink_for_OpenVMS,2013-03-15 17:45:00,
2013-03-15 13:50:00,40.3,14.0,29.46,SW,219,4.9,5.4,34,0.00,,,0.00,WXlink_for_OpenVMS,2013-03-15 17:50:00,
2013-03-15 13:55:00,40.8,15.0,29.46,SSE,156,4.0,4.0,35,0.00,,,0.00,WXlink_for_OpenVMS,2013-03-15 17:55:00,
2013-03-15 14:00:00,40.8,15.0,29.46,SSE,155,4.0,5.4,35,0.00,,,0.00,WXlink_for_OpenVMS,2013-03-15 18:00:00,
2013-03-15 14:05:00,41.0,15.0,29.46,WSW,237,2.7,3.1,34,0.00,,,0.00,WXlink_for_OpenVMS,2013-03-15 18:05:00,
2013-03-15 14:10:00,40.6,14.0,29.46,WSW,237,4.9,5.4,34,0.00,,,0.00,WXlink_for_OpenVMS,2013-03-15 18:10:00,
2013-03-15 14:15:00,40.1,13.0,29.43,SW,226,4.5,4.5,33,0.00,,,0.00,WXlink_for_OpenVMS,2013-03-15 18:15:00,
2013-03-15 14:20:00,39.4,13.0,29.43,SW,231,2.7,4.0,33,0.00,,,0.00,WXlink_for_OpenVMS,2013-03-15 18:20:00,
2013-03-15 14:25:00,38.8,12.0,29.43,South,188,0.0,4.0,33,0.00,,,0.00,WXlink_for_OpenVMS,2013-03-15 18:25:00,
2013-03-15 14:35:00,38.7,12.0,29.43,SW,231,3.1,3.1,33,0.00,,,0.00,WXlink_for_OpenVMS,2013-03-15 18:35:00,
2013-03-15 14:40:00,39.0,12.0,29.43,West,270,2.7,6.3,33,0.00,,,0.00,WXlink_for_OpenVMS,2013-03-15 18:40:00,
2013-03-15 14:45:00,39.2,12.0,29.43,South,177,3.6,4.9,33,0.00,,,0.00,WXlink_for_OpenVMS,2013-03-15 18:45:00,
2013-03-15 14:50:00,39.9,14.0,29.43,WSW,254,3.1,4.0,34,0.00,,,0.00,WXlink_for_OpenVMS,2013-03-15 18:50:00,
2013-03-15 14:55:00,40.8,14.0,29.43,SSE,162,0.0,3.1,33,0.00,,,0.00,WXlink_for_OpenVMS,2013-03-15 18:55:00,
2013-03-15 15:00:00,41.5,15.0,29.40,WSW,250,3.6,5.4,34,0.00,,,0.00,WXlink_for_OpenVMS,2013-03-15 19:00:00,
2013-03-15 15:05:00,41.7,15.0,29.40,South,187,4.0,6.3,34,0.00,,,0.00,WXlink_for_OpenVMS,2013-03-15 19:05:00,
2013-03-15 15:10:00,41.5,16.0,29.40,WSW,237,3.6,4.9,35,0.00,,,0.00,WXlink_for_OpenVMS,2013-03-15 19:10:00,
2013-03-15 15:15:00,41.5,16.0,29.40,WSW,237,2.7,3.1,35,0.00,,,0.00,WXlink_for_OpenVMS,2013-03-15 19:15:00,
2013-03-15 15:20:00,41.5,16.0,29.40,South,179,4.5,4.9,35,0.00,,,0.00,WXlink_for_OpenVMS,2013-03-15 19:20:00,
2013-03-15 15:25:00,41.2,16.0,29.40,SW,222,3.6,3.6,35,0.00,,,0.00,WXlink_for_OpenVMS,2013-03-15 19:25:00,
2013-03-15 15:30:00,41.2,16.0,29.40,SSW,194,3.6,4.0,36,0.00,,,0.00,WXlink_for_OpenVMS,2013-03-15 19:30:00,
2013-03-15 15:40:00,41.4,17.0,29.40,SSW,212,4.5,4.5,37,0.00,,,0.00,WXlink_for_OpenVMS,2013-03-15 19:40:00,
2013-03-15 15:45:00,41.2,17.0,29.40,WSW,249,3.6,5.4,38,0.00,,,0.00,WXlink_for_OpenVMS,2013-03-15 19:45:00,
2013-03-15 15:50:00,41.2,17.0,29.40,West,259,4.9,4.9,38,0.00,,,0.00,WXlink_for_OpenVMS,2013-03-15 19:50:00,
2013-03-15 15:55:00,41.2,17.0,29.40,WSW,249,4.5,4.5,38,0.00,,,0.00,WXlink_for_OpenVMS,2013-03-15 19:55:00,
2013-03-15 16:00:00,41.2,17.0,29.40,SW,227,6.3,7.6,38,0.00,,,0.00,WXlink_for_OpenVMS,2013-03-15 20:00:00,
2013-03-15 16:05:00,41.2,17.0,29.40,WSW,248,4.5,8.7,38,0.00,,,0.00,WXlink_for_OpenVMS,2013-03-15 20:05:00,
2013-03-15 16:10:00,41.5,18.0,29.40,SW,227,3.6,3.6,39,0.00,,,0.00,WXlink_for_OpenVMS,2013-03-15 20:10:00,
2013-03-15 16:15:00,41.9,19.0,29.37,SW,231,6.3,6.3,39,0.00,,,0.00,WXlink_for_OpenVMS,2013-03-15 20:15:00,
2013-03-15 16:20:00,42.1,19.0,29.37,SW,224,4.0,5.8,39,0.00,,,0.00,WXlink_for_OpenVMS,2013-03-15 20:20:00,
2013-03-15 16:25:00,42.1,19.0,29.37,WSW,240,4.9,5.4,39,0.00,,,0.00,WXlink_for_OpenVMS,2013-03-15 20:25:00,
2013-03-15 16:30:00,41.9,19.0,29.37,SW,220,4.0,4.0,39,0.00,,,0.00,WXlink_for_OpenVMS,2013-03-15 20:30:00,
2013-03-15 16:35:00,41.7,19.0,29.37,SW,236,4.9,5.4,39,0.00,,,0.00,WXlink_for_OpenVMS,2013-03-15 20:35:00,
2013-03-15 16:40:00,41.5,18.0,29.37,WSW,239,4.5,4.5,39,0.00,,,0.00,WXlink_for_OpenVMS,2013-03-15 20:40:00,
2013-03-15 16:45:00,41.5,18.0,29.37,WSW,254,4.0,5.8,39,0.00,,,0.00,WXlink_for_OpenVMS,2013-03-15 20:45:00,
2013-03-15 16:50:00,41.4,18.0,29.37,WSW,247,3.6,4.0,39,0.00,,,0.00,WXlink_for_OpenVMS,2013-03-15 20:50:00,
2013-03-15 16:55:00,41.4,18.0,29.37,West,268,5.8,7.6,39,0.00,,,0.00,WXlink_for_OpenVMS,2013-03-15 20:55:00,
2013-03-15 17:00:00,41.2,18.0,29.37,SW,233,3.1,3.6,39,0.00,,,0.00,WXlink_for_OpenVMS,2013-03-15 21:00:00,
2013-03-15 17:05:00,41.0,18.0,29.37,SW,227,3.6,3.6,39,0.00,,,0.00,WXlink_for_OpenVMS,2013-03-15 21:05:00,
2013-03-15 17:15:00,40.6,18.0,29.37,WSW,247,3.6,4.0,39,0.00,,,0.00,WXlink_for_OpenVMS,2013-03-15 21:15:00,
2013-03-15 17:20:00,40.5,17.0,29.37,West,266,5.8,5.8,39,0.00,,,0.00,WXlink_for_OpenVMS,2013-03-15 21:20:00,
2013-03-15 17:25:00,40.5,17.0,29.37,SSW,196,4.0,4.0,39,0.00,,,0.00,WXlink_for_OpenVMS,2013-03-15 21:25:00,
2013-03-15 17:30:00,40.3,18.0,29.37,SW,225,3.6,3.6,40,0.00,,,0.00,WXlink_for_OpenVMS,2013-03-15 21:30:00,
2013-03-15 17:35:00,40.3,18.0,29.37,SW,218,4.0,4.0,40,0.00,,,0.00,WXlink_for_OpenVMS,2013-03-15 21:35:00,
2013-03-15 17:40:00,40.1,18.0,29.37,WSW,248,4.0,6.3,40,0.00,,,0.00,WXlink_for_OpenVMS,2013-03-15 21:40:00,
2013-03-15 17:45:00,39.9,18.0,29.37,WSW,238,6.3,6.3,41,0.00,,,0.00,WXlink_for_OpenVMS,2013-03-15 21:45:00,
2013-03-15 17:50:00,39.7,18.0,29.37,SW,236,4.5,4.5,41,0.00,,,0.00,WXlink_for_OpenVMS,2013-03-15 21:50:00,
2013-03-15 17:55:00,39.6,18.0,29.37,SW,224,6.3,6.3,41,0.00,,,0.00,WXlink_for_OpenVMS,2013-03-15 21:55:00,
2013-03-15 18:00:00,39.4,18.0,29.37,SSW,209,3.6,3.6,42,0.00,,,0.00,WXlink_for_OpenVMS,2013-03-15 22:00:00,
2013-03-15 18:05:00,39.2,19.0,29.37,SW,235,4.0,0.0,43,0.00,,,0.00,WXlink_for_OpenVMS,2013-03-15 22:05:00,
2013-03-15 18:15:00,39.2,19.0,29.37,West,259,4.5,4.9,44,0.00,,,0.00,WXlink_for_OpenVMS,2013-03-15 22:15:00,
2013-03-15 18:20:00,38.8,19.0,29.37,SE,137,3.1,4.0,45,0.00,,,0.00,WXlink_for_OpenVMS,2013-03-15 22:20:00,
2013-03-15 18:25:00,38.7,20.0,29.37,West,260,5.4,5.4,46,0.00,,,0.00,WXlink_for_OpenVMS,2013-03-15 22:25:00,
2013-03-15 18:35:00,38.5,20.0,29.37,South,179,2.7,3.1,47,0.00,,,0.00,WXlink_for_OpenVMS,2013-03-15 22:35:00,
2013-03-15 18:40:00,38.5,20.0,29.37,SW,234,3.6,4.5,48,0.00,,,0.00,WXlink_for_OpenVMS,2013-03-15 22:40:00,
2013-03-15 18:45:00,38.5,20.0,29.37,West,260,3.1,4.0,48,0.00,,,0.00,WXlink_for_OpenVMS,2013-03-15 22:45:00,
2013-03-15 18:50:00,38.5,21.0,29.37,WSW,237,4.0,4.9,49,0.00,,,0.00,WXlink_for_OpenVMS,2013-03-15 22:50:00,
2013-03-15 18:55:00,38.3,21.0,29.37,SW,233,2.7,3.6,49,0.00,,,0.00,WXlink_for_OpenVMS,2013-03-15 22:55:00,
2013-03-15 19:00:00,38.3,21.0,29.37,SW,228,0.0,0.0,49,0.00,,,0.00,WXlink_for_OpenVMS,2013-03-15 23:00:00,
2013-03-15 19:05:00,38.3,21.0,29.37,SW,229,2.2,0.0,49,0.00,,,0.00,WXlink_for_OpenVMS,2013-03-15 23:05:00,
2013-03-15 19:10:00,38.1,21.0,29.37,SW,218,0.0,3.1,49,0.00,,,0.00,WXlink_for_OpenVMS,2013-03-15 23:10:00,
2013-03-15 19:15:00,38.1,21.0,29.37,WSW,238,3.6,3.6,50,0.00,,,0.00,WXlink_for_OpenVMS,2013-03-15 23:15:00,
2013-03-15 19:20:00,38.1,21.0,29.37,SW,226,3.1,3.6,50,0.00,,,0.00,WXlink_for_OpenVMS,2013-03-15 23:20:00,
2013-03-15 19:25:00,38.1,21.0,29.37,WSW,240,4.0,4.0,50,0.00,,,0.00,WXlink_for_OpenVMS,2013-03-15 23:25:00,
2013-03-15 19:30:00,38.1,21.0,29.37,SW,222,3.6,3.6,50,0.00,,,0.00,WXlink_for_OpenVMS,2013-03-15 23:30:00,
2013-03-15 19:35:00,37.9,21.0,29.37,SW,224,3.1,4.0,51,0.00,,,0.00,WXlink_for_OpenVMS,2013-03-15 23:35:00,
2013-03-15 19:40:00,37.9,21.0,29.37,SW,234,4.5,4.5,51,0.00,,,0.00,WXlink_for_OpenVMS,2013-03-15 23:40:00,
2013-03-15 19:45:00,37.9,21.0,29.37,WSW,246,3.6,3.6,51,0.00,,,0.00,WXlink_for_OpenVMS,2013-03-15 23:45:00,
2013-03-15 19:50:00,37.8,21.0,29.37,SW,230,0.0,0.0,51,0.00,,,0.00,WXlink_for_OpenVMS,2013-03-15 23:50:00,
2013-03-15 19:55:00,37.6,22.0,29.37,SW,224,3.6,3.6,52,0.00,,,0.00,WXlink_for_OpenVMS,2013-03-15 23:55:00,
2013-03-15 20:00:00,37.6,22.0,29.37,SW,221,2.2,2.7,52,0.00,,,0.00,WXlink_for_OpenVMS,2013-03-16 00:00:00,
2013-03-15 20:05:00,37.6,22.0,29.37,SW,227,0.0,0.0,52,0.00,,,0.00,WXlink_for_OpenVMS,2013-03-16 00:05:00,
2013-03-15 20:10:00,37.8,22.0,29.37,NW,307,4.0,6.3,52,0.00,,,0.00,WXlink_for_OpenVMS,2013-03-16 00:10:00,
2013-03-15 20:15:00,37.8,22.0,29.37,WSW,244,3.6,3.6,52,0.00,,,0.00,WXlink_for_OpenVMS,2013-03-16 00:15:00,
2013-03-15 20:25:00,37.4,22.0,29.37,SW,219,2.2,2.7,53,0.00,,,0.00,WXlink_for_OpenVMS,2013-03-16 00:25:00,
2013-03-15 20:30:00,37.4,22.0,29.37,West,262,2.7,4.0,53,0.00,,,0.00,WXlink_for_OpenVMS,2013-03-16 00:30:00,
2013-03-15 20:35:00,37.2,22.0,29.37,SW,227,2.2,3.6,54,0.00,,,0.00,WXlink_for_OpenVMS,2013-03-16 00:35:00,
2013-03-15 20:40:00,37.0,22.0,29.37,SW,227,0.0,0.0,54,0.00,,,0.00,WXlink_for_OpenVMS,2013-03-16 00:40:00,
2013-03-15 20:45:00,37.0,22.0,29.37,SW,233,3.1,3.1,55,0.00,,,0.00,WXlink_for_OpenVMS,2013-03-16 00:45:00,
2013-03-15 20:50:00,37.0,22.0,29.37,SW,234,4.0,4.0,55,0.00,,,0.00,WXlink_for_OpenVMS,2013-03-16 00:50:00,
2013-03-15 20:55:00,37.0,22.0,29.37,SSW,211,3.6,3.6,55,0.00,,,0.00,WXlink_for_OpenVMS,2013-03-16 00:55:00,
2013-03-15 21:00:00,37.0,23.0,29.37,SW,228,3.1,3.1,56,0.00,,,0.00,WXlink_for_OpenVMS,2013-03-16 01:00:00,
2013-03-15 21:05:00,36.9,23.0,29.37,SW,234,2.7,2.7,56,0.00,,,0.00,WXlink_for_OpenVMS,2013-03-16 01:05:00,
2013-03-15 21:15:00,36.7,23.0,29.37,West,265,0.0,0.0,57,0.00,,,0.00,WXlink_for_OpenVMS,2013-03-16 01:15:00,
2013-03-15 21:20:00,36.5,23.0,29.37,WSW,240,0.0,0.0,58,0.00,,,0.00,WXlink_for_OpenVMS,2013-03-16 01:20:00,
2013-03-15 21:25:00,36.3,23.0,29.37,SW,236,0.0,0.0,58,0.00,,,0.00,WXlink_for_OpenVMS,2013-03-16 01:25:00,
2013-03-15 21:30:00,36.3,23.0,29.37,SW,230,0.0,0.0,58,0.00,,,0.00,WXlink_for_OpenVMS,2013-03-16 01:30:00,
2013-03-15 21:35:00,36.3,23.0,29.37,SW,226,2.7,4.0,59,0.00,,,0.00,WXlink_for_OpenVMS,2013-03-16 01:35:00,
2013-03-15 21:40:00,36.3,23.0,29.37,SW,236,3.1,4.9,59,0.00,,,0.00,WXlink_for_OpenVMS,2013-03-16 01:40:00,
2013-03-15 21:45:00,36.5,24.0,29.37,WSW,254,2.7,2.7,60,0.00,,,0.00,WXlink_for_OpenVMS,2013-03-16 01:45:00,
2013-03-15 21:50:00,36.5,24.0,29.37,WSW,254,2.2,0.0,60,0.00,,,0.00,WXlink_for_OpenVMS,2013-03-16 01:50:00,
2013-03-15 21:55:00,36.5,24.0,29.37,WSW,254,0.0,0.0,61,0.00,,,0.00,WXlink_for_OpenVMS,2013-03-16 01:55:00,
2013-03-15 22:00:00,36.5,25.0,29.37,West,263,3.6,5.4,62,0.00,,,0.00,WXlink_for_OpenVMS,2013-03-16 02:00:00,
2013-03-15 22:05:00,36.3,25.0,29.37,WSW,257,3.1,4.0,63,0.00,,,0.00,WXlink_for_OpenVMS,2013-03-16 02:05:00,
2013-03-15 22:10:00,36.1,25.0,29.37,West,265,4.5,4.5,64,0.00,,,0.00,WXlink_for_OpenVMS,2013-03-16 02:10:00,
2013-03-15 22:15:00,36.0,25.0,29.37,WSW,244,3.1,3.6,65,0.00,,,0.00,WXlink_for_OpenVMS,2013-03-16 02:15:00,
2013-03-15 22:20:00,35.8,26.0,29.37,WSW,244,0.0,0.0,66,0.00,,,0.00,WXlink_for_OpenVMS,2013-03-16 02:20:00,
2013-03-15 22:25:00,35.6,26.0,29.37,WSW,244,0.0,0.0,67,0.00,,,0.00,WXlink_for_OpenVMS,2013-03-16 02:25:00,
2013-03-15 22:30:00,35.6,26.0,29.37,WSW,247,0.0,0.0,67,0.00,,,0.00,WXlink_for_OpenVMS,2013-03-16 02:30:00,
2013-03-15 22:40:00,35.4,26.0,29.37,SW,218,2.7,2.7,67,0.00,,,0.00,WXlink_for_OpenVMS,2013-03-16 02:40:00,
2013-03-15 22:45:00,35.4,26.0,29.37,SW,223,3.1,3.1,67,0.00,,,0.00,WXlink_for_OpenVMS,2013-03-16 02:45:00,
2013-03-15 22:50:00,35.4,26.0,29.37,SW,234,2.2,3.1,67,0.00,,,0.00,WXlink_for_OpenVMS,2013-03-16 02:50:00,
2013-03-15 22:55:00,35.4,26.0,29.37,SW,227,3.1,3.1,67,0.00,,,0.00,WXlink_for_OpenVMS,2013-03-16 02:55:00,
2013-03-15 23:00:00,35.4,26.0,29.37,SW,232,2.7,3.1,67,0.00,,,0.00,WXlink_for_OpenVMS,2013-03-16 03:00:00,
2013-03-15 23:05:00,35.4,26.0,29.37,SW,225,4.0,4.5,67,0.00,,,0.00,WXlink_for_OpenVMS,2013-03-16 03:05:00,
2013-03-15 23:15:00,35.4,25.0,29.37,WSW,247,3.6,4.0,66,0.00,,,0.00,WXlink_for_OpenVMS,2013-03-16 03:15:00,
2013-03-15 23:20:00,35.4,25.0,29.37,WSW,252,3.6,3.6,66,0.00,,,0.00,WXlink_for_OpenVMS,2013-03-16 03:20:00,
2013-03-15 23:25:00,35.4,25.0,29.37,WSW,257,4.0,5.4,66,0.00,,,0.00,WXlink_for_OpenVMS,2013-03-16 03:25:00,
2013-03-15 23:30:00,35.2,25.0,29.37,SW,227,3.6,4.0,65,0.00,,,0.00,WXlink_for_OpenVMS,2013-03-16 03:30:00,
2013-03-15 23:35:00,35.4,25.0,29.37,WSW,246,4.0,4.0,65,0.00,,,0.00,WXlink_for_OpenVMS,2013-03-16 03:35:00,
2013-03-15 23:40:00,35.4,24.0,29.37,SW,234,3.1,4.0,64,0.00,,,0.00,WXlink_for_OpenVMS,2013-03-16 03:40:00,
2013-03-15 23:45:00,35.2,25.0,29.37,WSW,244,3.6,3.6,65,0.00,,,0.00,WXlink_for_OpenVMS,2013-03-16 03:45:00,
2013-03-15 23:50:00,35.2,24.0,29.37,West,263,3.1,5.4,64,0.00,,,0.00,WXlink_for_OpenVMS,2013-03-16 03:50:00,
2013-03-15 23:55:00,35.2,24.0,29.37,West,263,3.6,3.6,63,0.00,,,0.00,WXlink_for_OpenVMS,2013-03-16 03:55:00,